Time,TemperatureF,DewpointF,PressureIn,WindDirection,WindDirectionDegrees,WindSpeedMPH,WindSpeedGustMPH,Humidity,HourlyPrecipIn,Conditions,Clouds,dailyrainin,SoftwareType,DateUTC
2013-01-16 00:00:00,1.7,-2.8,30.22,South,181,0.0,0.0,81,0.00,,,0.00,Wunderground v.1.13,2013-01-16 05:00:00,
2013-01-16 00:10:00,2.3,-1.9,30.23,N/A,-737280,0.0,0.0,82,0.00,,,0.00,Wunderground v.1.13,2013-01-16 05:10:00,
2013-01-16 00:20:00,2.3,-1.9,30.23,N/A,-737280,0.0,0.0,82,0.00,,,0.00,Wunderground v.1.13,2013-01-16 05:20:00,
2013-01-16 00:30:00,3.9,-0.4,30.23,South,181,0.0,0.0,82,0.00,,,0.00,Wunderground v.1.13,2013-01-16 05:30:00,
2013-01-16 00:40:00,4.3,0.0,30.23,N/A,-737280,0.0,0.0,82,0.00,,,0.00,Wunderground v.1.13,2013-01-16 05:40:00,
2013-01-16 00:50:00,4.3,0.0,30.23,N/A,-737280,0.0,0.0,82,0.00,,,0.00,Wunderground v.1.13,2013-01-16 05:50:00,
2013-01-16 01:00:00,5.2,0.6,30.22,South,181,0.0,0.0,81,0.00,,,0.00,Wunderground v.1.13,2013-01-16 06:00:00,
2013-01-16 01:10:00,5.5,0.9,30.22,N/A,-737280,0.0,0.0,81,0.00,,,0.00,Wunderground v.1.13,2013-01-16 06:10:00,
2013-01-16 01:20:00,5.5,0.9,30.22,N/A,-737280,0.0,0.0,81,0.00,,,0.00,Wunderground v.1.13,2013-01-16 06:20:00,
2013-01-16 01:30:00,6.0,1.2,30.22,South,181,0.0,0.0,80,0.00,,,0.00,Wunderground v.1.13,2013-01-16 06:30:00,
2013-01-16 01:40:00,6.1,1.3,30.23,N/A,-737280,0.0,0.0,80,0.00,,,0.00,Wunderground v.1.13,2013-01-16 06:40:00,
2013-01-16 01:50:00,6.1,1.3,30.23,N/A,-737280,0.0,0.0,80,0.00,,,0.00,Wunderground v.1.13,2013-01-16 06:50:00,
2013-01-16 02:00:00,6.3,1.2,30.23,South,181,0.0,0.0,79,0.00,,,0.00,Wunderground v.1.13,2013-01-16 07:00:00,
2013-01-16 02:10:00,6.2,0.8,30.23,South,180,0.0,1.0,78,0.00,,,0.00,Wunderground v.1.13,2013-01-16 07:10:00,
2013-01-16 02:20:00,6.2,0.8,30.23,South,180,0.0,1.0,78,0.00,,,0.00,Wunderground v.1.13,2013-01-16 07:20:00,
2013-01-16 02:30:00,6.1,0.7,30.23,South,181,0.0,0.0,78,0.00,,,0.00,Wunderground v.1.13,2013-01-16 07:30:00,
2013-01-16 02:40:00,6.2,1.1,30.22,South,180,0.0,1.0,79,0.00,,,0.00,Wunderground v.1.13,2013-01-16 07:40:00,
2013-01-16 02:50:00,6.2,1.1,30.22,South,180,0.0,1.0,79,0.00,,,0.00,Wunderground v.1.13,2013-01-16 07:50:00,
2013-01-16 03:00:00,6.5,1.4,30.22,South,181,0.0,0.0,79,0.00,,,0.00,Wunderground v.1.13,2013-01-16 08:00:00,
2013-01-16 03:10:00,6.5,1.1,30.22,N/A,-737280,0.0,0.0,78,0.00,,,0.00,Wunderground v.1.13,2013-01-16 08:10:00,
2013-01-16 03:20:00,6.5,1.1,30.22,N/A,-737280,0.0,0.0,78,0.00,,,0.00,Wunderground v.1.13,2013-01-16 08:20:00,
2013-01-16 03:30:00,5.4,-0.2,30.21,South,181,0.0,0.0,77,0.00,,,0.00,Wunderground v.1.13,2013-01-16 08:30:00,
2013-01-16 03:40:00,5.1,-0.5,30.21,N/A,-737280,0.0,0.0,77,0.00,,,0.00,Wunderground v.1.13,2013-01-16 08:40:00,
2013-01-16 03:50:00,5.1,-0.5,30.21,N/A,-737280,0.0,0.0,77,0.00,,,0.00,Wunderground v.1.13,2013-01-16 08:50:00,
2013-01-16 04:00:00,4.7,-0.4,30.21,South,181,0.0,0.0,79,0.00,,,0.00,Wunderground v.1.13,2013-01-16 09:00:00,
2013-01-16 04:10:00,4.6,-0.8,30.20,N/A,-737280,0.0,0.0,78,0.00,,,0.00,Wunderground v.1.13,2013-01-16 09:10:00,
2013-01-16 04:20:00,4.6,-0.8,30.20,N/A,-737280,0.0,0.0,78,0.00,,,0.00,Wunderground v.1.13,2013-01-16 09:20:00,
2013-01-16 04:30:00,4.3,-0.8,30.20,South,181,0.0,0.0,79,0.00,,,0.00,Wunderground v.1.13,2013-01-16 09:30:00,
2013-01-16 04:40:00,4.3,-0.8,30.20,N/A,-737280,0.0,0.0,79,0.00,,,0.00,Wunderground v.1.13,2013-01-16 09:40:00,
2013-01-16 04:50:00,4.3,-0.8,30.20,N/A,-737280,0.0,0.0,79,0.00,,,0.00,Wunderground v.1.13,2013-01-16 09:50:00,
2013-01-16 05:00:00,4.3,-0.8,30.20,South,181,0.0,0.0,79,0.00,,,0.00,Wunderground v.1.13,2013-01-16 10:00:00,
2013-01-16 05:10:00,4.4,-0.4,30.20,N/A,-737280,0.0,0.0,80,0.00,,,0.00,Wunderground v.1.13,2013-01-16 10:10:00,
2013-01-16 05:20:00,4.4,-0.4,30.20,N/A,-737280,0.0,0.0,80,0.00,,,0.00,Wunderground v.1.13,2013-01-16 10:20:00,
2013-01-16 05:30:00,4.8,0.0,30.20,South,181,0.0,0.0,80,0.00,,,0.00,Wunderground v.1.13,2013-01-16 10:30:00,
2013-01-16 05:40:00,4.8,-0.3,30.19,N/A,-737280,0.0,0.0,79,0.00,,,0.00,Wunderground v.1.13,2013-01-16 10:40:00,
2013-01-16 05:50:00,4.8,-0.3,30.19,N/A,-737280,0.0,0.0,79,0.00,,,0.00,Wunderground v.1.13,2013-01-16 10:50:00,
2013-01-16 06:00:00,4.5,-0.6,30.18,South,181,0.0,0.0,79,0.00,,,0.00,Wunderground v.1.13,2013-01-16 11:00:00,
2013-01-16 06:10:00,4.4,-0.7,30.18,N/A,-737280,0.0,0.0,79,0.00,,,0.00,Wunderground v.1.13,2013-01-16 11:10:00,
2013-01-16 06:20:00,4.4,-0.7,30.18,N/A,-737280,0.0,0.0,79,0.00,,,0.00,Wunderground v.1.13,2013-01-16 11:20:00,
2013-01-16 06:30:00,4.5,-0.3,30.18,South,181,0.0,0.0,80,0.00,,,0.00,Wunderground v.1.13,2013-01-16 11:30:00,
2013-01-16 06:40:00,4.4,-0.7,30.18,N/A,-737280,0.0,0.0,79,0.00,,,0.00,Wunderground v.1.13,2013-01-16 11:40:00,
2013-01-16 06:50:00,4.4,-0.7,30.18,N/A,-737280,0.0,0.0,79,0.00,,,0.00,Wunderground v.1.13,2013-01-16 11:50:00,
2013-01-16 07:00:00,4.3,-0.8,30.19,South,181,0.0,0.0,79,0.00,,,0.00,Wunderground v.1.13,2013-01-16 12:00:00,
2013-01-16 07:10:00,4.1,-1.0,30.19,N/A,-737280,0.0,0.0,79,0.00,,,0.00,Wunderground v.1.13,2013-01-16 12:10:00,
2013-01-16 07:20:00,4.1,-1.0,30.19,N/A,-737280,0.0,0.0,79,0.00,,,0.00,Wunderground v.1.13,2013-01-16 12:20:00,
2013-01-16 07:30:00,4.1,-1.0,30.19,South,181,0.0,0.0,79,0.00,,,0.00,Wunderground v.1.13,2013-01-16 12:30:00,
2013-01-16 07:40:00,4.1,-0.7,30.19,N/A,-737280,0.0,0.0,80,0.00,,,0.00,Wunderground v.1.13,2013-01-16 12:40:00,
2013-01-16 07:50:00,4.1,-0.7,30.19,N/A,-737280,0.0,0.0,80,0.00,,,0.00,Wunderground v.1.13,2013-01-16 12:50:00,
2013-01-16 08:00:00,4.7,-0.1,30.19,South,181,0.0,0.0,80,0.00,,,0.00,Wunderground v.1.13,2013-01-16 13:00:00,
2013-01-16 08:10:00,5.0,0.2,30.19,N/A,-737280,0.0,0.0,80,0.00,,,0.00,Wunderground v.1.13,2013-01-16 13:10:00,
2013-01-16 08:20:00,5.6,1.0,30.19,South,181,0.0,0.0,81,0.00,,,0.00,Wunderground v.1.13,2013-01-16 13:20:00,
2013-01-16 08:30:00,6.1,1.5,30.19,South,181,0.0,0.0,81,0.00,,,0.00,Wunderground v.1.13,2013-01-16 13:30:00,
2013-01-16 08:40:00,6.5,1.6,30.19,N/A,-737280,0.0,0.0,80,0.00,,,0.00,Wunderground v.1.13,2013-01-16 13:40:00,
2013-01-16 08:50:00,6.5,1.6,30.19,N/A,-737280,0.0,0.0,80,0.00,,,0.00,Wunderground v.1.13,2013-01-16 13:50:00,
2013-01-16 09:00:00,6.9,1.8,30.19,South,181,0.0,0.0,79,0.00,,,0.00,Wunderground v.1.13,2013-01-16 14:00:00,
2013-01-16 09:10:00,7.1,2.0,30.18,N/A,-737280,0.0,0.0,79,0.00,,,0.00,Wunderground v.1.13,2013-01-16 14:10:00,
2013-01-16 09:20:00,7.1,2.0,30.18,N/A,-737280,0.0,0.0,79,0.00,,,0.00,Wunderground v.1.13,2013-01-16 14:20:00,
2013-01-16 09:30:00,8.4,3.2,30.17,SSW,195,0.0,1.0,79,0.00,,,0.00,Wunderground v.1.13,2013-01-16 14:30:00,
2013-01-16 09:40:00,9.0,4.1,30.16,SSW,203,0.0,2.0,80,0.00,,,0.00,Wunderground v.1.13,2013-01-16 14:40:00,
2013-01-16 09:50:00,9.0,4.1,30.16,SSW,203,0.0,2.0,80,0.00,,,0.00,Wunderground v.1.13,2013-01-16 14:50:00,
2013-01-16 10:00:00,11.2,6.0,30.15,SSW,195,0.0,1.0,79,0.00,,,0.00,Wunderground v.1.13,2013-01-16 15:00:00,
2013-01-16 10:10:00,11.5,5.7,30.15,SSW,203,0.0,2.0,77,0.00,,,0.00,Wunderground v.1.13,2013-01-16 15:10:00,
2013-01-16 10:20:00,11.5,5.7,30.15,SSW,203,0.0,2.0,77,0.00,,,0.00,Wunderground v.1.13,2013-01-16 15:20:00,
2013-01-16 10:30:00,13.5,7.3,30.13,SSW,195,0.0,1.0,76,0.00,,,0.00,Wunderground v.1.13,2013-01-16 15:30:00,
2013-01-16 10:40:00,14.0,7.2,30.12,SSW,203,0.0,3.0,74,0.00,,,0.00,Wunderground v.1.13,2013-01-16 15:40:00,
2013-01-16 10:50:00,14.0,7.2,30.12,SSW,203,0.0,3.0,74,0.00,,,0.00,Wunderground v.1.13,2013-01-16 15:50:00,
2013-01-16 11:00:00,16.1,8.3,30.11,SSW,195,0.0,0.0,71,0.00,,,0.00,Wunderground v.1.13,2013-01-16 16:00:00,
2013-01-16 11:10:00,16.6,7.5,30.10,SSW,203,0.0,2.0,67,0.00,,,0.00,Wunderground v.1.13,2013-01-16 16:10:00,
2013-01-16 11:20:00,16.6,7.5,30.10,SSW,203,0.0,2.0,67,0.00,,,0.00,Wunderground v.1.13,2013-01-16 16:20:00,
2013-01-16 11:30:00,17.8,8.0,30.08,SSE,157,0.0,2.0,65,0.00,,,0.00,Wunderground v.1.13,2013-01-16 16:30:00,
2013-01-16 11:40:00,17.9,8.1,30.07,SSE,158,0.0,2.0,65,0.00,,,0.00,Wunderground v.1.13,2013-01-16 16:40:00,
2013-01-16 11:50:00,17.9,8.1,30.07,SSE,158,0.0,2.0,65,0.00,,,0.00,Wunderground v.1.13,2013-01-16 16:50:00,
2013-01-16 12:00:00,18.6,8.4,30.06,SSE,157,0.0,1.0,64,0.00,,,0.00,Wunderground v.1.13,2013-01-16 17:00:00,
2013-01-16 12:10:00,19.0,8.1,30.05,SSE,158,0.0,3.0,62,0.00,,,0.00,Wunderground v.1.13,2013-01-16 17:10:00,
2013-01-16 12:20:00,19.0,8.1,30.05,SSE,158,0.0,3.0,62,0.00,,,0.00,Wunderground v.1.13,2013-01-16 17:20:00,
2013-01-16 12:30:00,20.8,10.2,30.03,SSE,157,0.0,0.0,63,0.00,,,0.00,Wunderground v.1.13,2013-01-16 17:30:00,
2013-01-16 12:40:00,22.2,12.6,30.02,North,0,1.0,7.0,66,0.00,,,0.00,Wunderground v.1.13,2013-01-16 17:40:00,
2013-01-16 12:50:00,22.2,12.6,30.02,North,0,1.0,7.0,66,0.00,,,0.00,Wunderground v.1.13,2013-01-16 17:50:00,
2013-01-16 13:00:00,25.8,14.6,30.01,North,353,2.0,2.0,62,0.00,,,0.00,Wunderground v.1.13,2013-01-16 18:00:00,
2013-01-16 13:10:00,26.3,14.3,30.00,North,0,2.0,7.0,60,0.00,,,0.00,Wunderground v.1.13,2013-01-16 18:10:00,
2013-01-16 13:20:00,26.3,14.3,30.00,North,0,2.0,7.0,60,0.00,,,0.00,Wunderground v.1.13,2013-01-16 18:20:00,
2013-01-16 13:30:00,27.0,14.9,29.98,NNW,346,2.0,2.0,60,0.00,,,0.00,Wunderground v.1.13,2013-01-16 18:30:00,
2013-01-16 13:40:00,27.1,14.7,29.98,NNW,338,3.0,8.0,59,0.00,,,0.00,Wunderground v.1.13,2013-01-16 18:40:00,
2013-01-16 13:50:00,27.1,14.7,29.98,NNW,338,3.0,8.0,59,0.00,,,0.00,Wunderground v.1.13,2013-01-16 18:50:00,
2013-01-16 14:00:00,27.2,15.1,29.97,WNW,299,2.0,2.0,60,0.00,,,0.00,Wunderground v.1.13,2013-01-16 19:00:00,
2013-01-16 14:10:00,27.0,13.8,29.96,NNW,338,3.0,10.0,57,0.00,,,0.00,Wunderground v.1.13,2013-01-16 19:10:00,
2013-01-16 14:20:00,27.0,13.8,29.96,NNW,338,3.0,10.0,57,0.00,,,0.00,Wunderground v.1.13,2013-01-16 19:20:00,
2013-01-16 14:30:00,26.4,14.0,29.95,NW,309,4.0,11.0,59,0.00,,,0.00,Wunderground v.1.13,2013-01-16 19:30:00,
2013-01-16 14:40:00,26.1,14.8,29.94,NW,315,4.0,14.0,62,0.00,,,0.00,Wunderground v.1.13,2013-01-16 19:40:00,
2013-01-16 14:50:00,26.1,14.8,29.94,NW,315,4.0,14.0,62,0.00,,,0.00,Wunderground v.1.13,2013-01-16 19:50:00,
2013-01-16 15:00:00,25.3,14.5,29.93,NNW,340,6.0,6.0,63,0.00,,,0.00,Wunderground v.1.13,2013-01-16 20:00:00,
2013-01-16 15:10:00,25.1,15.3,29.93,NNW,338,4.0,16.0,66,0.00,,,0.00,Wunderground v.1.13,2013-01-16 20:10:00,
2013-01-16 15:20:00,25.1,15.3,29.93,NNW,338,4.0,16.0,66,0.00,,,0.00,Wunderground v.1.13,2013-01-16 20:20:00,
2013-01-16 15:30:00,24.4,15.3,29.93,NW,325,4.0,4.0,68,0.00,,,0.00,Wunderground v.1.13,2013-01-16 20:30:00,
2013-01-16 15:40:00,24.1,16.7,29.93,NW,315,4.0,10.0,73,0.00,,,0.00,Wunderground v.1.13,2013-01-16 20:40:00,
2013-01-16 15:50:00,24.1,16.7,29.93,NW,315,4.0,10.0,73,0.00,,,0.00,Wunderground v.1.13,2013-01-16 20:50:00,
2013-01-16 16:00:00,23.3,17.2,29.92,NNW,343,2.0,3.0,77,0.00,,,0.00,Wunderground v.1.13,2013-01-16 21:00:00,
2013-01-16 16:10:00,23.1,17.6,29.92,NNW,338,3.0,10.0,79,0.00,,,0.00,Wunderground v.1.13,2013-01-16 21:10:00,
2013-01-16 16:20:00,23.1,17.6,29.92,NNW,338,3.0,10.0,79,0.00,,,0.00,Wunderground v.1.13,2013-01-16 21:20:00,
2013-01-16 16:30:00,22.9,17.7,29.92,NNW,338,3.0,9.0,80,0.00,,,0.00,Wunderground v.1.13,2013-01-16 21:30:00,
2013-01-16 16:40:00,22.9,17.7,29.90,NNW,338,2.0,11.0,80,0.00,,,0.00,Wunderground v.1.13,2013-01-16 21:40:00,
2013-01-16 16:50:00,22.9,17.7,29.90,NNW,338,2.0,11.0,80,0.00,,,0.00,Wunderground v.1.13,2013-01-16 21:50:00,
2013-01-16 17:00:00,22.9,17.9,29.91,NNW,338,1.0,3.0,81,0.00,,,0.00,Wunderground v.1.13,2013-01-16 22:00:00,
2013-01-16 17:10:00,22.9,17.9,29.91,NW,315,1.0,8.0,81,0.00,,,0.00,Wunderground v.1.13,2013-01-16 22:10:00,
2013-01-16 17:20:00,22.9,17.9,29.91,NW,315,1.0,8.0,81,0.00,,,0.00,Wunderground v.1.13,2013-01-16 22:20:00,
2013-01-16 17:30:00,22.9,18.2,29.90,NNW,338,1.0,6.0,82,0.00,,,0.00,Wunderground v.1.13,2013-01-16 22:30:00,
2013-01-16 17:40:00,22.9,18.2,29.89,NNW,338,1.0,5.0,82,0.00,,,0.00,Wunderground v.1.13,2013-01-16 22:40:00,
2013-01-16 17:50:00,22.9,18.2,29.89,NNW,338,1.0,5.0,82,0.00,,,0.00,Wunderground v.1.13,2013-01-16 22:50:00,
2013-01-16 18:00:00,23.0,18.3,29.89,WSW,248,1.0,6.0,82,0.00,,,0.00,Wunderground v.1.13,2013-01-16 23:00:00,
2013-01-16 18:10:00,23.0,18.6,29.88,NNW,338,1.0,5.0,83,0.00,,,0.00,Wunderground v.1.13,2013-01-16 23:10:00,
2013-01-16 18:20:00,23.0,18.6,29.88,NNW,338,1.0,5.0,83,0.00,,,0.00,Wunderground v.1.13,2013-01-16 23:20:00,
2013-01-16 18:30:00,22.9,18.8,29.87,NW,315,0.0,3.0,84,0.00,,,0.00,Wunderground v.1.13,2013-01-16 23:30:00,
2013-01-16 18:40:00,22.8,18.7,29.86,NW,315,0.0,3.0,84,0.00,,,0.00,Wunderground v.1.13,2013-01-16 23:40:00,
2013-01-16 18:50:00,22.8,18.7,29.86,NW,315,0.0,3.0,84,0.00,,,0.00,Wunderground v.1.13,2013-01-16 23:50:00,
2013-01-16 19:00:00,22.7,18.9,29.84,NW,315,0.0,4.0,85,0.00,,,0.00,Wunderground v.1.13,2013-01-17 00:00:00,
2013-01-16 19:10:00,22.8,19.2,29.83,NW,315,0.0,3.0,86,0.00,,,0.00,Wunderground v.1.13,2013-01-17 00:10:00,
2013-01-16 19:20:00,22.8,19.2,29.83,NW,315,0.0,3.0,86,0.00,,,0.00,Wunderground v.1.13,2013-01-17 00:20:00,
2013-01-16 19:30:00,23.1,19.3,29.83,NW,315,1.0,5.0,85,0.00,,,0.00,Wunderground v.1.13,2013-01-17 00:30:00,
2013-01-16 19:40:00,23.2,19.4,29.82,NNW,338,0.0,3.0,85,0.00,,,0.00,Wunderground v.1.13,2013-01-17 00:40:00,
2013-01-16 19:50:00,23.2,19.4,29.82,NNW,338,0.0,3.0,85,0.00,,,0.00,Wunderground v.1.13,2013-01-17 00:50:00,
2013-01-16 20:00:00,23.3,19.7,29.82,NNW,338,1.0,5.0,86,0.00,,,0.00,Wunderground v.1.13,2013-01-17 01:00:00,
2013-01-16 20:10:00,23.7,20.1,29.80,NW,315,1.0,4.0,86,0.00,,,0.00,Wunderground v.1.13,2013-01-17 01:10:00,
2013-01-16 20:20:00,23.7,20.1,29.80,NW,315,1.0,4.0,86,0.00,,,0.00,Wunderground v.1.13,2013-01-17 01:20:00,
2013-01-16 20:30:00,24.0,19.9,29.80,North,0,3.0,8.0,84,0.00,,,0.00,Wunderground v.1.13,2013-01-17 01:30:00,
2013-01-16 20:40:00,24.2,20.3,29.80,NNW,338,3.0,10.0,85,0.00,,,0.00,Wunderground v.1.13,2013-01-17 01:40:00,
2013-01-16 20:50:00,24.2,20.3,29.80,NNW,338,3.0,10.0,85,0.00,,,0.00,Wunderground v.1.13,2013-01-17 01:50:00,
2013-01-16 21:00:00,24.4,21.1,29.79,NNW,338,4.0,10.0,87,0.00,,,0.00,Wunderground v.1.13,2013-01-17 02:00:00,
2013-01-16 21:10:00,24.4,20.8,29.78,North,0,4.0,10.0,86,0.00,,,0.00,Wunderground v.1.13,2013-01-17 02:10:00,
2013-01-16 21:20:00,24.4,20.8,29.78,North,0,4.0,10.0,86,0.00,,,0.00,Wunderground v.1.13,2013-01-17 02:20:00,
2013-01-16 21:30:00,24.5,21.2,29.78,NNW,338,3.0,8.0,87,0.00,,,0.00,Wunderground v.1.13,2013-01-17 02:30:00,
2013-01-16 21:40:00,24.5,21.2,29.78,NNW,338,2.0,8.0,87,0.00,,,0.00,Wunderground v.1.13,2013-01-17 02:40:00,
2013-01-16 21:50:00,24.5,21.2,29.78,NNW,338,2.0,8.0,87,0.00,,,0.00,Wunderground v.1.13,2013-01-17 02:50:00,
2013-01-16 22:00:00,24.8,21.5,29.76,NNW,338,3.0,11.0,87,0.00,,,0.00,Wunderground v.1.13,2013-01-17 03:00:00,
2013-01-16 22:10:00,25.1,22.0,29.75,NNW,338,4.0,11.0,88,0.00,,,0.00,Wunderground v.1.13,2013-01-17 03:10:00,
2013-01-16 22:20:00,25.1,22.0,29.75,NNW,338,4.0,11.0,88,0.00,,,0.00,Wunderground v.1.13,2013-01-17 03:20:00,
2013-01-16 22:30:00,25.3,22.2,29.74,NNW,338,4.0,12.0,88,0.00,,,0.00,Wunderground v.1.13,2013-01-17 03:30:00,
2013-01-16 22:40:00,25.5,22.7,29.74,North,0,3.0,10.0,89,0.00,,,0.00,Wunderground v.1.13,2013-01-17 03:40:00,
2013-01-16 22:50:00,25.5,22.7,29.74,North,0,3.0,10.0,89,0.00,,,0.00,Wunderground v.1.13,2013-01-17 03:50:00,
2013-01-16 23:00:00,25.7,22.6,29.73,NNW,338,3.0,11.0,88,0.00,,,0.00,Wunderground v.1.13,2013-01-17 04:00:00,
2013-01-16 23:10:00,25.8,22.5,29.73,North,0,3.0,11.0,87,0.00,,,0.00,Wunderground v.1.13,2013-01-17 04:10:00,
2013-01-16 23:20:00,25.8,22.5,29.73,North,0,3.0,11.0,87,0.00,,,0.00,Wunderground v.1.13,2013-01-17 04:20:00,
2013-01-16 23:30:00,26.0,22.9,29.73,NNW,338,3.0,8.0,88,0.00,,,0.00,Wunderground v.1.13,2013-01-17 04:30:00,
2013-01-16 23:40:00,26.1,23.0,29.73,North,0,1.0,7.0,88,0.00,,,0.00,Wunderground v.1.13,2013-01-17 04:40:00,
2013-01-16 23:50:00,26.1,23.0,29.73,North,0,1.0,7.0,88,0.00,,,0.00,Wunderground v.1.13,2013-01-17 04:50:00,